Satellite-Ground Cal/Val Region Overpasses Predictions

Prediction of Satellite NPP Overpassing Cal/Val Region: PacNW

Region Location: (Latitude: 10.00, Longitude: 139.50) to (Latitude: 22.70, Longitude: 165.60).

Table of predicted overpasses for the next 14.0 days since TLE Epoch: 3/26/2013
Interval Starting Time Starting Location Ending Time Ending Location
1 03/27/2013 02:19:26 ( 10.03, 164.50) 03/27/2013 02:23:01 ( 22.65, 161.49)
2 03/27/2013 14:51:20 ( 22.67, 161.74) 03/27/2013 14:54:55 ( 10.05, 158.74)
3 03/28/2013 03:41:55 ( 10.00, 143.89) 03/28/2013 03:45:31 ( 22.68, 140.87)
4 03/28/2013 14:33:22 ( 19.01, 165.60) 03/28/2013 14:35:55 ( 10.02, 163.49)
5 03/28/2013 16:13:49 ( 22.70, 141.13) 03/28/2013 16:15:43 ( 16.01, 139.51)
6 03/29/2013 03:22:54 ( 10.03, 148.64) 03/29/2013 03:26:29 ( 22.65, 145.63)
7 03/29/2013 15:54:48 ( 22.67, 145.88) 03/29/2013 15:58:23 ( 10.05, 142.88)
8 03/30/2013 03:03:54 ( 10.06, 153.39) 03/30/2013 03:07:29 ( 22.68, 150.38)
9 03/30/2013 15:35:48 ( 22.64, 150.63) 03/30/2013 15:39:23 ( 10.03, 147.63)
10 03/31/2013 02:44:53 ( 10.03, 158.15) 03/31/2013 02:48:28 ( 22.65, 155.14)
11 03/31/2013 15:16:46 ( 22.68, 155.39) 03/31/2013 15:20:21 ( 10.06, 152.39)
12 04/01/2013 02:25:52 ( 10.05, 162.90) 04/01/2013 02:29:27 ( 22.68, 159.89)
13 04/01/2013 14:57:46 ( 22.65, 160.14) 04/01/2013 15:01:21 ( 10.03, 157.14)
14 04/02/2013 02:09:21 ( 18.83, 165.60) 04/02/2013 02:10:26 ( 22.65, 164.66)
15 04/02/2013 03:48:21 ( 10.03, 142.29) 04/02/2013 03:51:41 ( 21.77, 139.50)
16 04/02/2013 14:38:44 ( 22.68, 164.91) 04/02/2013 14:42:19 ( 10.06, 161.90)
17 04/02/2013 16:20:14 ( 22.67, 139.53) 04/02/2013 16:20:16 ( 22.56, 139.50)
18 04/03/2013 03:29:20 ( 10.06, 147.04) 04/03/2013 03:32:55 ( 22.68, 144.03)
19 04/03/2013 16:01:14 ( 22.64, 144.28) 04/03/2013 16:04:49 ( 10.02, 141.27)
20 04/04/2013 03:10:19 ( 10.03, 151.80) 04/04/2013 03:13:54 ( 22.65, 148.79)
21 04/04/2013 15:42:12 ( 22.67, 149.04) 04/04/2013 15:45:47 ( 10.05, 146.04)
22 04/05/2013 02:51:17 ( 10.00, 156.56) 04/05/2013 02:54:53 ( 22.68, 153.54)
23
